TimeCST,TemperatureF,Dew PointF,Humidity,Sea Level PressureIn,VisibilityMPH,Wind Direction,Wind SpeedMPH,Gust SpeedMPH,PrecipitationIn,Events,Conditions,WindDirDegrees,DateUTC
12:56 AM,30.0,27.0,88,29.53,10.0,West,4.6,-,N/A,,Clear,280,2013-12-03 06:56:00
1:56 AM,33.1,28.0,82,29.54,10.0,WNW,4.6,-,N/A,,Clear,290,2013-12-03 07:56:00
2:56 AM,36.0,30.0,79,29.55,10.0,North,9.2,-,N/A,,Clear,360,2013-12-03 08:56:00
3:56 AM,36.0,30.9,82,29.55,10.0,North,9.2,-,N/A,,Clear,360,2013-12-03 09:56:00
4:56 AM,35.1,30.0,82,29.56,10.0,North,11.5,-,N/A,,Clear,10,2013-12-03 10:56:00
5:56 AM,33.1,28.0,82,29.56,8.0,North,10.4,-,N/A,,Mostly Cloudy,10,2013-12-03 11:56:00
6:56 AM,30.9,28.0,89,29.59,6.0,North,10.4,-,N/A,,Overcast,350,2013-12-03 12:56:00
7:12 AM,30.9,27.0,85,29.57,6.0,NNW,10.4,-,N/A,,Overcast,340,2013-12-03 13:12:00
7:23 AM,30.9,28.0,89,29.57,5.0,North,11.5,-,N/A,,Overcast,350,2013-12-03 13:23:00
7:54 AM,30.2,28.4,93,29.59,2.5,North,10.4,-,N/A,,Overcast,350,2013-12-03 13:54:00
7:56 AM,30.9,28.9,92,29.62,2.5,North,10.4,-,N/A,,Overcast,350,2013-12-03 13:56:00
8:13 AM,30.0,28.9,96,29.60,1.5,NNW,13.8,-,N/A,,Overcast,340,2013-12-03 14:13:00
8:32 AM,30.0,28.9,96,29.59,0.8,North,13.8,-,N/A,,Overcast,10,2013-12-03 14:32:00
8:42 AM,30.9,28.9,92,29.59,1.0,North,13.8,-,N/A,,Overcast,10,2013-12-03 14:42:00
8:56 AM,30.9,28.9,92,29.64,1.5,North,13.8,-,N/A,,Overcast,360,2013-12-03 14:56:00
9:13 AM,30.9,28.9,92,29.61,2.0,North,13.8,-,N/A,,Overcast,350,2013-12-03 15:13:00
9:37 AM,32.0,30.0,92,29.63,3.0,North,11.5,-,N/A,,Overcast,350,2013-12-03 15:37:00
9:56 AM,33.1,30.0,89,29.66,3.0,North,12.7,-,N/A,,Overcast,10,2013-12-03 15:56:00
10:24 AM,34.0,30.0,85,29.62,4.0,North,11.5,-,N/A,,Overcast,360,2013-12-03 16:24:00
10:56 AM,34.0,30.0,85,29.66,5.0,North,11.5,-,N/A,,Overcast,360,2013-12-03 16:56:00
11:56 AM,35.1,30.0,82,29.65,6.0,North,13.8,-,N/A,,Haze,360,2013-12-03 17:56:00
12:56 PM,35.1,30.0,82,29.65,6.0,North,15.0,-,N/A,,Haze,350,2013-12-03 18:56:00
1:56 PM,34.0,28.9,82,29.67,5.0,NNW,16.1,-,N/A,,Haze,340,2013-12-03 19:56:00
2:56 PM,33.1,28.9,85,29.69,5.0,NNW,16.1,24.2,N/A,,Overcast,340,2013-12-03 20:56:00
3:56 PM,32.0,28.9,88,29.69,7.0,North,17.3,-,N/A,,Overcast,350,2013-12-03 21:56:00
4:56 PM,30.9,28.0,89,29.71,9.0,NNW,16.1,-,N/A,,Overcast,340,2013-12-03 22:56:00
5:56 PM,30.0,26.1,85,29.74,9.0,NNW,16.1,25.3,N/A,,Overcast,340,2013-12-03 23:56:00
6:40 PM,28.9,25.0,85,29.69,10.0,North,15.0,23.0,N/A,,Overcast,350,2013-12-04 00:40:00
6:56 PM,28.9,24.1,82,29.73,10.0,North,13.8,-,N/A,,Overcast,350,2013-12-04 00:56:00
7:56 PM,28.0,23.0,81,29.73,10.0,North,16.1,-,N/A,,Overcast,350,2013-12-04 01:56:00
8:06 PM,28.0,23.0,81,29.68,10.0,North,11.5,-,N/A,,Overcast,360,2013-12-04 02:06:00
8:23 PM,28.0,23.0,81,29.68,10.0,North,12.7,-,N/A,,Overcast,360,2013-12-04 02:23:00
8:56 PM,28.0,23.0,81,29.75,10.0,NNW,12.7,-,N/A,,Overcast,340,2013-12-04 02:56:00
9:56 PM,27.0,23.0,85,29.77,10.0,NNW,11.5,-,N/A,,Overcast,340,2013-12-04 03:56:00
10:56 PM,26.1,21.0,81,29.77,10.0,NNW,15.0,-,N/A,,Overcast,330,2013-12-04 04:56:00
11:56 PM,24.1,19.0,81,29.77,10.0,NNW,16.1,-,N/A,,Overcast,340,2013-12-04 05:56:00